Preview of NWS' New Version of Forecast
This preview is not operational and should not be used for support decisions.

Regional Weather Roundup (RWR)

Issued by Gray - Portland, ME (GYX)

                            
000
ASUS41 KGYX 211105
RWRGYX
WEATHER ROUNDUP FOR MAINE AND NEW HAMPSHIRE
NATIONAL WEATHER SERVICE GRAY ME
700 AM EDT SUN APR 21 2019

MEZ002-005-006-010-012-015-018-020-021-024-026-027-029-211200-
MAINE
  
CITY           SKY/WX    TMP DP  RH WIND       PRES   REMARKS
PORTLAND       FOG       50  49  96 S6        30.01R VSB 1/4          
SANFORD        FOG       55  54  94 CALM      30.01R VSB 1            
BAR HARBOR     FOG       52  52 100 S13       30.07R VSB 1/2          
WISCASSET      FOG       49  49 100 SE6       30.04R VSB 3/4          
ROCKLAND       LGT RAIN  48  48 100 S10       30.04R VSB 1/4          
FRYEBURG       CLOUDY    54  54 100 CALM      29.98R                  
LEWISTONAUBURN FOG       52  52 100 SE7       30.00R VSB 1/4          
AUGUSTA        FOG       55  55 100 S10       30.00S VSB 1/2          
WATERVILLE     CLOUDY    55  55 100 VRB6      29.97R FOG              
BANGOR         FOG       53  53 100 S9        30.03R VSB 1/4          
GREENVILLE       N/A     47  47 100 SE8       29.97R                  
MILLINOCKET    FOG       41  40  96 CALM      30.02F VSB 1/4          
HOULTON        FOG       43  43 100 CALM      30.04R VSB 1/2          
PRESQUE ISLE   CLOUDY    42  42 100 SE13      30.01S                  
FRENCHVILLE    FOG       42  39  89 SE8       29.99R VSB<1/4          
CARIBOU        CLOUDY    43  42  97 S8        30.00S FOG              
$$

NHZ002-005-008-009-011-012-014-211200-
NEW HAMPSHIRE
  
CITY           SKY/WX    TMP DP  RH WIND       PRES   REMARKS
PORTSMOUTH     CLOUDY    55  55 100 CALM      29.98R FOG              
ROCHESTER      FOG       56  56 100 VRB5      30.00R VSB 1/4          
NASHUA         CLOUDY    58  58 100 CALM      30.00R                  
MANCHESTER     CLOUDY    59  56  89 S7        29.99R                  
CONCORD        CLOUDY    57  55  93 SE6       29.99R                  
LACONIA        CLOUDY    52  52 100 CALM      29.99R FOG              
PLYMOUTH       CLOUDY    51  50  95 CALM      29.98R FOG              
BERLIN         CLOUDY    53  52  96 N3        29.94R                  
WHITEFIELD     CLOUDY    53  50  89 CALM      29.95R                  
JAFFREY        LGT RAIN  54  52  93 CALM      29.99R                  
KEENE          CLOUDY    53  53 100 CALM      29.99R                  
LEBANON        FAIR      51  48  89 S3        29.96R                  
MT WASHINGTON  NOT AVBL                                               
$$

VTZ005-007-008-211200-
VERMONT
  
CITY           SKY/WX    TMP DP  RH WIND       PRES   REMARKS
ST JOHNSBURY     N/A     52  52 100 MISG      29.95R                  
MONTPELIER     FAIR      52  48  86 S5        29.98R                  
BURLINGTON     MOCLDY    55  48  77 S5        29.91R                  
$$

MAZ007-012-024-CTZ003-RIZ002-NYZ038-NYZ072-211200-
SOUTHERN NEW ENGLAND AND NY
  
CITY           SKY/WX    TMP DP  RH WIND       PRES   REMARKS
BOSTON         CLOUDY    57  55  93 S6        30.00R                  
WORCESTER      CLOUDY    53  52  96 S5        29.99R                  
NANTUCKET      FOG       52  51  97 SE16      30.02S VSB 1/2          
PROVIDENCE     CLOUDY    56  54  93 SW7       30.00R                  
HARTFORD       MOCLDY    56  54  93 CALM      29.97R                  
ALBANY         CLOUDY    56  49  77 S6        29.94R                  
NEW YORK CITY  MOCLDY    54  49  83 SE7       29.94R                  
$$

ANZ081-ANZ082-ANZ150-NHZ014-MEZ023>029-211200-
COASTAL MARINE OBSERVATIONS
  
STATION/POSITION TIME  TEMP    WIND        PRES    WAVE
                       AIR SEA DIR/SP/G            HT/PER
                 (UTC) (F)     (DEG/KT/KT) (MB)    (FT/S)
ISLE OF SHOALS   1000   55     160/ 16/ 16 1014.8R
$$

.............KEY..............
   WCI - WIND CHILL
   TC  - TEMPERATURE IN CELSIUS
   VSB - VISIBILITY IN MILES
   HX  - HEAT INDEX
   FAIR- INDICATES FEW OR NO CLOUDS BELOW 12,000 FT, WITH NO 
         SIGNIFICANT WEATHER AND/OR OBSTRUCTIONS TO VISIBILITY.